Home   Weather   Saint John's   Past weeks

Flag for Antigua and Barbuda Past Weather in Saint John's, Antigua and Barbuda — Yesterday and Last 2 Weeks

Now
82 °F

Passing clouds.


Feels Like: 88 °F
Forecast: 79 / 86 °F
Wind: 10 mph from East

Location: Vc Bird International Antigua Airport

Current Time: Sep 29, 2016 at 8:00:16 PM

Latest Report: Sep 29, 2016 at 7:00 PM


Visibility: N/A

Pressure: 29.98 "Hg

Humidity: 74%

Dew Point: 73 °F

Location of Saint John'sLocation

Past Weather in Saint John's — Graph

°F

Saint John's Temperature Yesterday

Maximum temperature yesterday: 88 °F (at 11:00 AM)
Minimum temperature yesterday: 75 °F (at 2:00 PM)
Average temperature yesterday: 82 °F

High & Low Weather Summary for the Past Weeks

 TemperatureHumidityPressure
High88 °F (Sep 15, 11:00 AM)100% (Sep 21, 12:42 PM)30.04 "Hg (Sep 21, 12:42 PM)
Low75 °F (Sep 21, 12:42 PM)55% (Sep 22, 3:00 PM)29.83 "Hg (Sep 21, 2:00 AM)
Average82 °F78%29.94 "Hg
* Reported Sep 14 7:00 PM — Sep 29 7:00 PM, Saint John's, Weather by CustomWeather, © 2016

Note: Actual official high and low records may vary slightly from our data, if they occured in-between our weather recording intervals... More about our weather records

Advertising

Saint John's Weather History for the Previous 24 Hours

Scroll right to see more
 ConditionsComfort  
Time TempWeatherWind HumidityBarometerVisibility
7:00 PM
Thu, Sep 29
82 °FPassing clouds.10 mph74%29.98 "HgN/A
6:00 PM82 °FPassing clouds.8 mph74%29.95 "HgN/A
5:00 PM84 °FPassing clouds.14 mph74%29.95 "HgN/A
4:00 PM84 °FPassing clouds.14 mph74%29.95 "HgN/A
3:00 PM84 °FSprinkles. Partly sunny.12 mph70%29.95 "HgN/A
2:00 PM86 °FLots of rain. Scattered clouds.12 mph75%29.95 "HgN/A
1:00 PM86 °FPassing clouds.14 mph70%29.95 "HgN/A
12:00 PM86 °FPassing clouds.13 mph70%29.98 "HgN/A
11:00 AM86 °FPassing clouds.16 mph66%30.01 "HgN/A
10:00 AM86 °FPassing clouds.17 mph62%30.01 "HgN/A
9:00 AM84 °FPassing clouds.20 mph70%29.98 "HgN/A
7:00 AM82 °FPartly sunny.16 mph79%29.95 "HgN/A
6:00 AM82 °FPartly sunny.18 mph79%29.92 "HgN/A
5:00 AM82 °FPassing clouds.20 mph79%29.92 "HgN/A
4:00 AM82 °FPartly cloudy.18 mph79%29.89 "HgN/A
3:00 AM82 °FPassing clouds.16 mph79%29.89 "HgN/A
2:00 AM82 °FPassing clouds.17 mph74%29.92 "HgN/A
1:00 AM82 °FPartly cloudy.20 mph79%29.95 "HgN/A
12:00 AM82 °FPassing clouds.16 mph70%29.95 "HgN/A
11:00 PM
Wed, Sep 28
81 °FPassing clouds.16 mph84%29.95 "HgN/A
10:00 PM81 °FPassing clouds.21 mph79%29.98 "HgN/A
9:00 PM79 °FPassing clouds.14 mph89%29.98 "HgN/A
8:00 PM77 °FSprinkles. Partly cloudy.14 mph89%29.98 "Hg5 mi
Weather by CustomWeather, © 2016

See weather overviewHow to use our weather pages